Location: ???????
(55.5931°N, 39.3286°E)
Time: 10:59:56
(UTC+00:00)

Cosmos 1340 Rocket - Pass Details

Date: 14 April 2024
Orbit: 507 x 543 km, 81.2° (Epoch: 28 May)

Event Time Altitude Azimuth Distance (km) Brightness Sun altitude
Rises 23:05:53 0° 109° (ESE) 2,635 6.4 -21.5°
Enters shadow 00:08:16 -66° 191° (S) 12,230 9.6 -16.4°
Maximum altitude 00:44:04 37° 95° (E) 819 4.1 -12.7°
